When you browse on this site, cookies collect data to enhance your experience and personalize the content and advertising you see.
Visit our Privacy Policy to learn more. By continuing to use the site, you agree to this use of cookies and data.
  • In Austria
  • List of Countries
  • For 7 days
  • Water Temperature
  • Weather Map
  • News
  • Weather Widgets
  • user-avatar
    Login

    Hourly Weather Klagenfurt

    Today, 9 December, Monday

    Time Temperature Precipitation Wind Pressure Humidity
    00:00 +2°C° 0 mm 1 mps 685 mmHg 92%
    01:00 +2°C° 0 mm 1 mps 685 mmHg 90%
    02:00 +2°C° 0 mm 1 mps 684 mmHg 91%
    03:00 +2°C° 0 mm 1 mps 684 mmHg 91%
    04:00 +2°C° 0 mm 1 mps 683 mmHg 92%
    05:00 +1°C° 0 mm 0 mps 683 mmHg 92%
    06:00 +1°C° 0 mm 0 mps 683 mmHg 92%
    07:00 +3°C° 0 mm 1 mps 683 mmHg 93%
    08:00 +3°C° 0.2 mm 1 mps 683 mmHg 92%
    09:00 +3°C° 0.2 mm 0 mps 683 mmHg 91%
    10:00 +3°C° 0.2 mm 0 mps 683 mmHg 90%
    11:00 +3°C° 0.5 mm 0 mps 683 mmHg 91%
    12:00 +3°C° 0.5 mm 0 mps 682 mmHg 92%
    13:00 +3°C° 0.5 mm 0 mps 682 mmHg 93%
    14:00 +4°C° 1.2 mm 1 mps 681 mmHg 94%
    15:00 +3°C° 1.2 mm 1 mps 681 mmHg 96%
    16:00 +3°C° 1.2 mm 1 mps 681 mmHg 97%
    17:00 +3°C° 1.4 mm 1 mps 681 mmHg 98%
    18:00 +3°C° 1.4 mm 1 mps 681 mmHg 98%
    19:00 +3°C° 1.4 mm 1 mps 682 mmHg 98%
    20:00 +2°C° 0.9 mm 1 mps 682 mmHg 98%
    21:00 +2°C° 0.9 mm 1 mps 682 mmHg 97%
    22:00 +2°C° 0.9 mm 1 mps 682 mmHg 97%
    23:00 +2°C° 0.1 mm 1 mps 683 mmHg 97%

    Tomorrow, 10 December, Tuesday

    Time Temperature Precipitation Wind Pressure Humidity
    00:00 +2°C° 0.1 mm 1 mps 683 mmHg 97%
    01:00 +2°C° 0.1 mm 1 mps 684 mmHg 96%
    02:00 +2°C° 0 mm 1 mps 684 mmHg 96%
    03:00 +2°C° 0 mm 1 mps 684 mmHg 95%
    04:00 +1°C° 0 mm 1 mps 685 mmHg 95%
    05:00 +1°C° 0 mm 1 mps 685 mmHg 93%
    06:00 +1°C° 0 mm 1 mps 686 mmHg 92%
    07:00 +1°C° 0 mm 1 mps 687 mmHg 91%
    08:00 +2°C° 0 mm 1 mps 688 mmHg 87%
    09:00 +2°C° 0 mm 1 mps 689 mmHg 83%
    10:00 +3°C° 0 mm 1 mps 689 mmHg 80%
    11:00 +3°C° 0 mm 2 mps 690 mmHg 74%
    12:00 +4°C° 0 mm 2 mps 690 mmHg 68%
    13:00 +4°C° 0 mm 2 mps 691 mmHg 62%
    14:00 +3°C° 0 mm 2 mps 691 mmHg 65%
    15:00 +1°C° 0 mm 2 mps 691 mmHg 69%
    16:00 -1°C° 0 mm 2 mps 691 mmHg 72%
    17:00 -2°C° 0 mm 2 mps 691 mmHg 73%
    18:00 -3°C° 0 mm 2 mps 692 mmHg 74%
    19:00 -4°C° 0 mm 2 mps 692 mmHg 75%
    20:00 -2°C° 0 mm 1 mps 692 mmHg 75%
    21:00 -2°C° 0 mm 1 mps 692 mmHg 76%
    22:00 -3°C° 0 mm 1 mps 692 mmHg 76%
    23:00 -3°C° 0 mm 1 mps 692 mmHg 76%

    Day after tomorrow, 11 December, Wednesday

    Time Temperature Precipitation Wind Pressure Humidity
    00:00 -3°C° 0 mm 1 mps 692 mmHg 76%
    01:00 -3°C° 0 mm 1 mps 692 mmHg 76%
    02:00 -3°C° 0 mm 1 mps 691 mmHg 74%
    03:00 -3°C° 0 mm 1 mps 690 mmHg 73%
    04:00 -5°C° 0 mm 0 mps 690 mmHg 72%
    05:00 -5°C° 0 mm 0 mps 689 mmHg 70%
    06:00 -5°C° 0 mm 0 mps 689 mmHg 69%
    07:00 -5°C° 0 mm 0 mps 689 mmHg 67%
    08:00 -4°C° 0 mm 0 mps 689 mmHg 63%
    09:00 -3°C° 0 mm 0 mps 688 mmHg 59%
    10:00 -1°C° 0 mm 0 mps 688 mmHg 56%
    11:00 -1°C° 0 mm 0 mps 687 mmHg 54%
    12:00 0°C° 0 mm 0 mps 687 mmHg 52%
    13:00 +2°C° 0 mm 1 mps 686 mmHg 50%
    14:00 0°C° 0 mm 0 mps 685 mmHg 55%
    15:00 -1°C° 0 mm 0 mps 684 mmHg 61%
    16:00 -3°C° 0 mm 0 mps 684 mmHg 67%
    17:00 -3°C° 0 mm 0 mps 683 mmHg 67%
    18:00 -3°C° 0 mm 0 mps 683 mmHg 67%
    19:00 -4°C° 0 mm 0 mps 683 mmHg 68%
    20:00 -4°C° 0 mm 0 mps 683 mmHg 67%
    21:00 -4°C° 0 mm 0 mps 683 mmHg 66%
    22:00 -4°C° 0 mm 0 mps 683 mmHg 65%
    23:00 -4°C° 0 mm 0 mps 683 mmHg 64%

    12 December, Thursday

    Time Temperature Precipitation Wind Pressure Humidity
    00:00 -4°C° 0 mm 0 mps 682 mmHg 64%
    01:00 -4°C° 0 mm 0 mps 682 mmHg 64%
    02:00 -4°C° 0 mm 0 mps 682 mmHg 64%
    03:00 -4°C° 0 mm 0 mps 682 mmHg 65%
    04:00 -5°C° 0 mm 0 mps 681 mmHg 66%
    05:00 -5°C° 0 mm 0 mps 681 mmHg 66%
    06:00 -5°C° 0 mm 0 mps 682 mmHg 66%
    07:00 -5°C° 0 mm 0 mps 682 mmHg 66%
    08:00 -4°C° 0.1 mm 0 mps 682 mmHg 64%
    09:00 -3°C° 0.1 mm 0 mps 682 mmHg 63%
    10:00 -2°C° 0.1 mm 0 mps 683 mmHg 61%
    11:00 -1°C° 0 mm 1 mps 683 mmHg 62%
    12:00 0°C° 0 mm 1 mps 683 mmHg 62%
    13:00 +1°C° 0 mm 1 mps 683 mmHg 63%
    14:00 -1°C° 0 mm 0 mps 683 mmHg 68%
    15:00 -1°C° 0 mm 0 mps 683 mmHg 74%
    16:00 -2°C° 0 mm 0 mps 682 mmHg 79%
    17:00 -2°C° 0 mm 0 mps 683 mmHg 82%
    18:00 -3°C° 0 mm 0 mps 683 mmHg 84%
    19:00 -3°C° 0 mm 0 mps 683 mmHg 86%
    20:00 -3°C° 0 mm 0 mps 683 mmHg 87%
    21:00 -3°C° 0 mm 0 mps 683 mmHg 88%
    22:00 -4°C° 0 mm 0 mps 682 mmHg 88%
    23:00 -4°C° 0 mm 0 mps 682 mmHg 89%

    13 December, Friday

    Time Temperature Precipitation Wind Pressure Humidity
    00:00 -3°C° 0 mm 1 mps 681 mmHg 90%
    01:00 -3°C° 0 mm 1 mps 680 mmHg 91%
    02:00 -3°C° 0 mm 1 mps 679 mmHg 91%
    03:00 -3°C° 0 mm 1 mps 678 mmHg 91%
    04:00 -3°C° 0 mm 1 mps 678 mmHg 91%
    05:00 -2°C° 0 mm 1 mps 677 mmHg 90%
    06:00 -2°C° 0 mm 1 mps 676 mmHg 89%
    07:00 -4°C° 0 mm 2 mps 675 mmHg 88%
    08:00 -4°C° 0 mm 2 mps 674 mmHg 85%
    09:00 -3°C° 0 mm 2 mps 674 mmHg 81%
    10:00 -2°C° 0 mm 2 mps 673 mmHg 78%
    11:00 -2°C° 0.5 mm 2 mps 672 mmHg 81%
    12:00 0°C° 0.5 mm 1 mps 671 mmHg 84%
    13:00 +1°C° 0.5 mm 1 mps 670 mmHg 88%
    14:00 +1°C° 2.9 mm 1 mps 670 mmHg 91%
    15:00 0°C° 2.9 mm 1 mps 670 mmHg 94%
    16:00 0°C° 2.9 mm 1 mps 669 mmHg 97%
    17:00 0°C° 1.2 mm 1 mps 670 mmHg 96%
    18:00 0°C° 1.2 mm 1 mps 670 mmHg 96%
    19:00 -1°C° 1.2 mm 1 mps 671 mmHg 95%
    20:00 -1°C° 0 mm 1 mps 671 mmHg 94%
    21:00 -2°C° 0 mm 1 mps 672 mmHg 93%
    22:00 -2°C° 0 mm 1 mps 672 mmHg 93%
    23:00 -2°C° 0 mm 1 mps 673 mmHg 91%

    14 December, Saturday

    Time Temperature Precipitation Wind Pressure Humidity
    00:00 -3°C° 0 mm 1 mps 673 mmHg 89%
    01:00 -4°C° 0 mm 0 mps 674 mmHg 88%
    02:00 -4°C° 0 mm 0 mps 674 mmHg 89%
    03:00 -2°C° 0 mm 1 mps 674 mmHg 91%
    04:00 -2°C° 0 mm 1 mps 675 mmHg 93%
    05:00 -2°C° 0 mm 1 mps 675 mmHg 93%
    06:00 -2°C° 0 mm 1 mps 675 mmHg 93%
    07:00 -2°C° 0 mm 1 mps 676 mmHg 93%
    08:00 -1°C° 0 mm 1 mps 676 mmHg 91%
    09:00 0°C° 0 mm 1 mps 676 mmHg 90%
    10:00 +1°C° 0 mm 1 mps 677 mmHg 89%
    11:00 +2°C° 0 mm 1 mps 677 mmHg 87%
    12:00 +2°C° 0 mm 1 mps 677 mmHg 86%
    13:00 +3°C° 0 mm 1 mps 678 mmHg 85%
    14:00 +2°C° 0 mm 1 mps 678 mmHg 87%
    15:00 +2°C° 0 mm 1 mps 679 mmHg 89%
    16:00 +1°C° 0 mm 1 mps 679 mmHg 92%
    17:00 0°C° 0 mm 1 mps 679 mmHg 91%
    18:00 0°C° 0 mm 1 mps 680 mmHg 90%
    19:00 -1°C° 0 mm 1 mps 680 mmHg 89%
    20:00 -1°C° 0 mm 1 mps 681 mmHg 88%
    21:00 -1°C° 0 mm 1 mps 682 mmHg 87%
    22:00 -1°C° 0 mm 1 mps 682 mmHg 87%
    23:00 -1°C° 0 mm 1 mps 682 mmHg 86%
    Show more